TimePDT,TemperatureF,Dew PointF,Humidity,Sea Level PressureIn,VisibilityMPH,Wind Direction,Wind SpeedMPH,Gust SpeedMPH,PrecipitationIn,Events,Conditions,WindDirDegrees,DateUTC
12:15 AM,62.6,51.8,68,30.05,10.0,ENE,5.8,-,N/A,,Clear,60,2013-09-11 07:15:00
12:35 AM,64.4,53.6,68,30.05,10.0,NNE,15.0,-,N/A,,Clear,30,2013-09-11 07:35:00
12:55 AM,64.4,53.6,68,30.05,10.0,NE,12.7,-,N/A,,Clear,40,2013-09-11 07:55:00
1:15 AM,64.4,53.6,68,30.06,10.0,NNE,13.8,-,N/A,,Clear,30,2013-09-11 08:15:00
1:35 AM,64.4,51.8,64,30.06,10.0,NNE,13.8,-,N/A,,Clear,30,2013-09-11 08:35:00
1:55 AM,64.4,51.8,64,30.06,10.0,NNE,13.8,-,N/A,,Clear,30,2013-09-11 08:55:00
2:15 AM,64.4,51.8,64,30.06,10.0,NNE,15.0,-,N/A,,Clear,30,2013-09-11 09:15:00
2:35 AM,64.4,51.8,64,30.06,10.0,NNE,13.8,-,N/A,,Clear,30,2013-09-11 09:35:00
2:55 AM,64.4,53.6,68,30.06,10.0,NNE,15.0,-,N/A,,Clear,30,2013-09-11 09:55:00
3:15 AM,64.4,51.8,64,30.06,10.0,NNE,15.0,-,N/A,,Clear,30,2013-09-11 10:15:00
3:35 AM,64.4,51.8,64,30.07,10.0,NNE,16.1,20.7,N/A,,Clear,30,2013-09-11 10:35:00
3:55 AM,64.4,51.8,64,30.07,10.0,NNE,17.3,-,N/A,,Clear,30,2013-09-11 10:55:00
4:15 AM,62.6,51.8,68,30.07,10.0,NNE,15.0,-,N/A,,Clear,20,2013-09-11 11:15:00
4:35 AM,62.6,51.8,68,30.07,10.0,NNE,15.0,-,N/A,,Clear,20,2013-09-11 11:35:00
4:55 AM,62.6,51.8,68,30.08,10.0,NNE,15.0,20.7,N/A,,Clear,30,2013-09-11 11:55:00
5:15 AM,62.6,51.8,68,30.08,10.0,NNE,13.8,20.7,N/A,,Clear,20,2013-09-11 12:15:00
5:35 AM,62.6,51.8,68,30.08,10.0,NNE,13.8,-,N/A,,Clear,20,2013-09-11 12:35:00
5:55 AM,62.6,51.8,68,30.09,10.0,NNE,16.1,21.9,N/A,,Clear,20,2013-09-11 12:55:00
6:15 AM,62.6,51.8,68,30.09,10.0,NNE,16.1,23.0,N/A,,Clear,20,2013-09-11 13:15:00
6:35 AM,62.6,51.8,68,30.09,10.0,NNE,17.3,-,N/A,,Clear,20,2013-09-11 13:35:00
6:55 AM,62.6,51.8,68,30.10,10.0,NNE,16.1,-,N/A,,Clear,20,2013-09-11 13:55:00
7:15 AM,62.6,53.6,72,30.10,10.0,NNE,18.4,23.0,N/A,,Clear,20,2013-09-11 14:15:00
7:35 AM,64.4,53.6,68,30.11,10.0,NNE,17.3,24.2,N/A,,Clear,30,2013-09-11 14:35:00
7:55 AM,64.4,53.6,68,30.11,10.0,NNE,20.7,-,N/A,,Clear,20,2013-09-11 14:55:00
8:15 AM,66.2,53.6,64,30.11,10.0,NNE,20.7,-,N/A,,Clear,30,2013-09-11 15:15:00
8:35 AM,66.2,57.2,73,30.12,10.0,NNE,19.6,25.3,N/A,,Clear,20,2013-09-11 15:35:00
8:55 AM,68.0,53.6,60,30.12,10.0,NNE,18.4,25.3,N/A,,Clear,30,2013-09-11 15:55:00
9:15 AM,69.8,53.6,56,30.12,10.0,NNE,16.1,24.2,N/A,,Clear,30,2013-09-11 16:15:00
9:35 AM,71.6,55.4,57,30.12,10.0,NNE,19.6,-,N/A,,Clear,30,2013-09-11 16:35:00
9:55 AM,73.4,55.4,53,30.12,10.0,NNE,19.6,26.5,N/A,,Clear,20,2013-09-11 16:55:00
10:15 AM,73.4,55.4,53,30.12,10.0,NNE,19.6,-,N/A,,Clear,30,2013-09-11 17:15:00
10:35 AM,75.2,55.4,50,30.11,10.0,NNE,17.3,-,N/A,,Clear,20,2013-09-11 17:35:00
10:55 AM,77.0,55.4,47,30.11,10.0,NNE,17.3,-,N/A,,Clear,20,2013-09-11 17:55:00
11:15 AM,78.8,55.4,44,30.11,10.0,NE,17.3,-,N/A,,Clear,40,2013-09-11 18:15:00
11:35 AM,78.8,55.4,44,30.11,10.0,NNE,17.3,23.0,N/A,,Clear,30,2013-09-11 18:35:00
11:55 AM,80.6,55.4,42,30.10,10.0,NNE,18.4,-,N/A,,Clear,30,2013-09-11 18:55:00
12:15 PM,82.4,55.4,39,30.10,10.0,NNE,15.0,-,N/A,,Clear,30,2013-09-11 19:15:00
12:35 PM,82.4,55.4,39,30.09,10.0,NNE,15.0,-,N/A,,Clear,20,2013-09-11 19:35:00
12:55 PM,84.2,55.4,37,30.09,10.0,NNE,13.8,-,N/A,,Clear,30,2013-09-11 19:55:00
1:15 PM,86.0,55.4,35,30.08,10.0,NNE,12.7,-,N/A,,Clear,30,2013-09-11 20:15:00
1:35 PM,87.8,55.4,33,30.08,10.0,NNE,15.0,-,N/A,,Clear,30,2013-09-11 20:35:00
1:55 PM,87.8,55.4,33,30.07,10.0,NNE,13.8,-,N/A,,Clear,30,2013-09-11 20:55:00
2:15 PM,87.8,55.4,33,30.07,10.0,NNE,15.0,-,N/A,,Clear,20,2013-09-11 21:15:00
2:35 PM,89.6,55.4,31,30.06,10.0,NNE,16.1,19.6,N/A,,Clear,20,2013-09-11 21:35:00
2:55 PM,89.6,55.4,31,30.06,10.0,NNE,16.1,-,N/A,,Clear,20,2013-09-11 21:55:00
3:15 PM,89.6,53.6,29,30.05,10.0,NNE,13.8,18.4,N/A,,Clear,30,2013-09-11 22:15:00
3:35 PM,89.6,53.6,29,30.04,10.0,NNE,15.0,-,N/A,,Clear,20,2013-09-11 22:35:00
3:55 PM,89.6,53.6,29,30.04,10.0,NNE,15.0,19.6,N/A,,Clear,30,2013-09-11 22:55:00
4:15 PM,89.6,51.8,27,30.04,10.0,NNE,15.0,-,N/A,,Clear,30,2013-09-11 23:15:00
4:35 PM,89.6,51.8,27,30.03,10.0,NNE,17.3,-,N/A,,Clear,30,2013-09-11 23:35:00
4:55 PM,89.6,51.8,27,30.03,10.0,NNE,17.3,20.7,N/A,,Clear,30,2013-09-11 23:55:00
5:15 PM,87.8,51.8,29,30.03,10.0,NNE,17.3,-,N/A,,Clear,30,2013-09-12 00:15:00
5:35 PM,87.8,51.8,29,30.02,10.0,NNE,16.1,23.0,N/A,,Clear,30,2013-09-12 00:35:00
5:55 PM,86.0,51.8,31,30.02,10.0,NNE,16.1,-,N/A,,Clear,30,2013-09-12 00:55:00
6:15 PM,84.2,51.8,33,30.02,10.0,NNE,17.3,21.9,N/A,,Clear,30,2013-09-12 01:15:00
6:35 PM,84.2,51.8,33,30.02,10.0,NNE,13.8,-,N/A,,Clear,30,2013-09-12 01:35:00
6:55 PM,82.4,51.8,35,30.02,10.0,NNE,15.0,-,N/A,,Clear,30,2013-09-12 01:55:00
7:15 PM,80.6,51.8,37,30.03,10.0,NNE,12.7,-,N/A,,Clear,20,2013-09-12 02:15:00
7:35 PM,75.2,51.8,44,30.03,10.0,NNE,10.4,-,N/A,,Clear,20,2013-09-12 02:35:00
7:55 PM,75.2,51.8,44,30.03,10.0,NNE,12.7,-,N/A,,Clear,20,2013-09-12 02:55:00
8:15 PM,75.2,51.8,44,30.03,10.0,East,6.9,-,N/A,,Clear,80,2013-09-12 03:15:00
8:35 PM,71.6,51.8,50,30.04,10.0,ENE,8.1,-,N/A,,Clear,60,2013-09-12 03:35:00
8:55 PM,69.8,51.8,53,30.04,10.0,NE,8.1,-,N/A,,Clear,40,2013-09-12 03:55:00
9:15 PM,71.6,51.8,50,30.04,10.0,NNE,12.7,-,N/A,,Clear,20,2013-09-12 04:15:00
9:35 PM,71.6,51.8,50,30.04,10.0,NNE,12.7,-,N/A,,Clear,20,2013-09-12 04:35:00
9:55 PM,71.6,51.8,50,30.04,10.0,NNE,13.8,-,N/A,,Clear,20,2013-09-12 04:55:00
10:15 PM,71.6,51.8,50,30.04,10.0,NNE,12.7,-,N/A,,Clear,20,2013-09-12 05:15:00
10:35 PM,71.6,51.8,50,30.04,10.0,NNE,12.7,-,N/A,,Clear,20,2013-09-12 05:35:00
10:55 PM,69.8,51.8,53,30.05,10.0,NNE,10.4,-,N/A,,Clear,30,2013-09-12 05:55:00
11:15 PM,69.8,51.8,53,30.05,10.0,NNE,11.5,-,N/A,,Clear,20,2013-09-12 06:15:00
11:35 PM,69.8,51.8,53,30.04,10.0,NNE,11.5,-,N/A,,Clear,20,2013-09-12 06:35:00
11:55 PM,68.0,51.8,56,30.05,10.0,NNE,10.4,-,N/A,,Clear,20,2013-09-12 06:55:00